STARLINK-3914, 52490

Orbit data source: Space-Track

STARLINK-3914, 52490 is a payload satellite owned by SpaceX/Seattle (US) in LEO that was launched on Fri, 06 May 2022 UTC via an FALCON 9 launch vehicle from the Air Force Eastern Test Range (AFETR). Payload-class satellites include a variety of spacecraft equipped with specific instruments for various scientific and technological missions. These include communications satellites like Starlink; space stations such as the ISS; scientific satellites like the Hubble; Earth observation satellites from companies like Planet Labs, Umbra, and HawkEye 360; GPS; miniature CubeSats for education and research; and military/defense satellites.

Loading next visibility...
Identifier
52490, 2022-049AR
Orbit
LEO
Country
Flag of USUS
Related business
Manufacturer
SpaceX/Seattle
Mission
Operational Commercial Communications
Bus & Motor
STARLINK, Unknown motor
Mass
297 kg wet, ~220 kg dry
Launch date (UTC)
2022-05-06 (4 years ago)
Launch vehicle
FALCON 9
Launch site
Air Force Eastern Test Range (AFETR)
Object type
Payload
Rocket body
Debris
Shape & HBR
Box + 1 Pan, 10.1 m
Radar Cross Section
13.562 m², Large (>1 m²)

Expand to show TLE details & history
Last TLE update: 1 day ago

TLE from 1 day ago
0 STARLINK-3914
1 52490U 22049AR  26206.14351294  .00000301  00000-0  37037-4 0  9990
2 52490  53.1613 151.7409 0001448  76.2200 283.8953 15.08831805233142
Epoch: 2026-07-25T03:26Z
TLE epoch observation values (Epoch: 2026-07-25T03:26:39.518Z)
Latitude
0.00004°
Longitude
157.21625°
Altitude
540.42 km
Speed
7.593 km/s
True Right ascension
10h 06m 57s
True Declination
0° 00' 00"
Sunlit
Object was in daylight at epoch
Visualization orbit readout
Latitude
Unknown
Longitude
Unknown
Altitude
Unknown
Speed
Unknown
Apparent Right ascension
Unknown
Apparent Declination
Unknown
Sunlit
N/A
Visualization observer readout
Local Sidereal Time
18:19:30
Azimuth
Unknown
Elevation
Unknown
Doppler factor
Unknown
Orbital elements
Apogee altitude
541.024 km
Perigee altitude
539.021 km
Semi-major axis
6,918.159 km
Eccentricity
0.00014
Inclination
53.1613°
RAAN
151.7409°
Arg. of periapsis
76.22°
True anomaly
283.87919°
Mean anomaly
283.8953°
Eccentric anomaly
283.88725°
Mean motion
3.77188 °/min
Orbital period
95.44 mins
BSTAR
0.000037037
Loading maneuver chart data...
Computing Atmospheric mass density...
Loading historical data...
Loading historical data...
Loading historical data...
Loading historical data...
Loading historical data...
Loading historical data...
Loading historical data...

Documentation

Showing up to 5 results
|